Weather History for Lewiston, ID

Change the Weather History Date:

Saturday, November 24, 2012

  Actual Average Record
Temperature  
Mean Temperature 45 °F 38 °F  
Max Temperature 50 °F 45 °F 66 °F (1960)
Min Temperature 40 °F 32 °F -1 °F (2010)
Degree Days  
Heating Degree Days 20 27  
Month to date heating degree days 442 548  
Since 1 July heating degree days 828 1073  
Cooling Degree Days 0 0  
Month to date cooling degree days 0 0  
Year to date cooling degree days 1034 807  
Moisture  
Dew Point 44 °F    
Average Humidity 83    
Maximum Humidity 100    
Minimum Humidity 66    
Precipitation  
Precipitation 0.40 in 0.04 in 0.70 in (1961)
Month to date precipitation 1.11 0.96  
Year to date precipitation 14.52 11.12  
Snow  
Snow 0.00 in 0.10 in 6.90 in (1961)
Month to date snowfall T 1.3  
Since 1 July snowfall T 1.3  
Since 1 September snowfall T 1.3  
Snow Depth 0.00 in    
Sea Level Pressure  
Sea Level Pressure 30.14 in    
Wind  
Wind Speed 2 mph (West)    
Max Wind Speed 8 mph    
Max Gust Speed 39 mph    
Visibility 6 miles    
Events Fog , Rain    
T = Trace of Precipitation, MM = Missing Value Source: NWS Daily Summary

Daily Weather History Graph

Daily Weather History Graph

Search for Another Location

Airport:

Trip Planner

Search our weather history database for the weather conditions in past years. The results will help you decide how hot, cold, wet, or windy it might be!

Date:

Astronomy

Nov. 24, 2012 Rise Set
Actual Time 7:02 AM PST 4:06 PM PST
Civil Twilight 6:29 AM PST 4:40 PM PST
Nautical Twilight 5:51 AM PST 5:17 PM PST
Astronomical Twilight 5:15 AM PST 5:53 PM PST
Moon 2:02 PM PST (11/24) 3:14 AM PST (11/24)
Length of Visible Light 10h 11m
Length of Day
9h 04m
Waxing Gibbous, 88% of the Moon is Illuminated
Nov 24
Waxing Gibbous
Nov 28
Full
Dec 6
Last Quarter
Dec 13
New
Dec 19
First Quarter

Hourly Weather History & Observations

Time (PST) Temp. Windchill Dew Point Humidity Pressure Visibility Wind Dir Wind Speed Gust Speed Precip Events Conditions
12:56 AM 45.0 °F - 39.9 °F 82% 30.12 in 10.0 mi Calm Calm - 0.00 in Rain Light Rain
1:56 AM 44.1 °F - 39.9 °F 85% 30.13 in 10.0 mi Calm Calm - 0.01 in Rain Light Rain
2:56 AM 43.0 °F - 41.0 °F 93% 30.14 in 10.0 mi Calm Calm - 0.03 in Rain Light Rain
3:09 AM 42.8 °F - 41.0 °F 93% 30.12 in 9.0 mi Calm Calm - 0.00 in Rain Light Rain
3:56 AM 42.1 °F 40.2 °F 41.0 °F 96% 30.16 in 8.0 mi NW 3.5 mph - 0.04 in Rain Light Rain
4:56 AM 43.0 °F - 42.1 °F 97% 30.15 in 8.0 mi Calm Calm - 0.06 in Rain Light Rain
5:56 AM 43.0 °F - 41.0 °F 93% 30.16 in 7.0 mi Calm Calm - 0.07 in Rain Light Rain
6:56 AM 44.1 °F - 41.0 °F 89% 30.14 in 10.0 mi Calm Calm - 0.02 in   Mostly Cloudy
7:56 AM 46.0 °F 44.8 °F 41.0 °F 83% 30.17 in 10.0 mi North 3.5 mph - N/A   Overcast
8:07 AM 46.4 °F 45.2 °F 42.8 °F 87% 30.15 in 10.0 mi NE 3.5 mph - N/A   Overcast
8:56 AM 44.1 °F - 43.0 °F 96% 30.19 in 2.5 mi Calm Calm - 0.07 in Rain Rain
9:11 AM 44.6 °F - 42.8 °F 93% 30.17 in 4.0 mi Calm Calm - 0.03 in Rain Light Rain
9:42 AM 44.6 °F - 42.8 °F 93% 30.18 in 3.0 mi Calm Calm - 0.05 in Rain Rain
9:46 AM 44.6 °F - 42.8 °F 93% 30.18 in 2.5 mi Calm Calm - 0.06 in Rain Light Rain
9:53 AM 44.6 °F - 44.6 °F 100% 30.18 in 6.0 mi Calm Calm - 0.07 in Rain Light Rain
9:56 AM 45.0 °F - 44.1 °F 97% 30.19 in 8.0 mi Calm Calm - 0.07 in Rain Light Rain
10:40 AM 46.4 °F 44.3 °F 44.6 °F 93% 30.18 in 10.0 mi South 4.6 mph - 0.00 in   Overcast
10:56 AM 46.9 °F - 45.0 °F 93% 30.19 in 6.0 mi Calm Calm - 0.00 in Rain Light Rain
11:56 AM 48.0 °F - 46.0 °F 93% 30.16 in 0.5 mi NNW 4.6 mph - 0.00 in Fog Fog
12:01 PM 46.4 °F 44.3 °F 46.4 °F 100% 30.14 in 0.2 mi North 4.6 mph - N/A Fog Fog
12:20 PM 48.2 °F - 46.4 °F 93% 30.14 in 0.5 mi East 3.5 mph - N/A Fog Fog
12:24 PM 48.2 °F - 46.4 °F 93% 30.14 in 1.5 mi Calm Calm - N/A   Overcast
12:27 PM 48.2 °F - 46.4 °F 93% 30.14 in 2.5 mi Calm Calm - N/A   Overcast
12:35 PM 48.2 °F - 46.4 °F 93% 30.14 in 4.0 mi NNW 3.5 mph - 0.00 in Rain Light Rain
12:42 PM 48.2 °F - 46.4 °F 93% 30.14 in 1.8 mi Calm Calm - 0.00 in Rain Light Rain
12:50 PM 48.2 °F - 46.4 °F 93% 30.14 in 3.0 mi Calm Calm - 0.00 in Rain Light Rain
12:56 PM 50.0 °F - 46.9 °F 89% 30.15 in 5.0 mi Calm Calm - 0.00 in   Overcast
1:32 PM 48.2 °F - 46.4 °F 93% 30.13 in 2.0 mi Calm Calm - 0.00 in   Overcast
1:43 PM 48.2 °F - 46.4 °F 93% 30.13 in 3.0 mi Calm Calm - 0.00 in   Overcast
1:56 PM 48.9 °F - 46.9 °F 93% 30.14 in 2.5 mi Calm Calm - 0.00 in   Overcast
2:09 PM 48.2 °F - 46.4 °F 93% 30.11 in 3.0 mi Calm Calm - 0.00 in Rain Light Rain
2:26 PM 48.2 °F - 46.4 °F 93% 30.11 in 2.0 mi Calm Calm - 0.00 in   Overcast
2:47 PM 48.2 °F - 46.4 °F 93% 30.12 in 2.5 mi Calm Calm - 0.00 in Rain Light Rain
2:56 PM 48.0 °F - 46.9 °F 96% 30.14 in 2.5 mi Calm Calm - 0.00 in Rain Light Rain
3:03 PM 48.2 °F - 46.4 °F 93% 30.12 in 3.0 mi Calm Calm - 0.00 in   Overcast
3:17 PM 48.2 °F - 44.6 °F 87% 30.12 in 9.0 mi South 3.5 mph - 0.00 in   Overcast
3:26 PM 48.2 °F - 46.4 °F 93% 30.12 in 2.0 mi NNW 3.5 mph - 0.00 in   Overcast
3:28 PM 48.2 °F - 46.4 °F 93% 30.12 in 1.8 mi NW 4.6 mph - 0.00 in   Overcast
3:33 PM 48.2 °F - 46.4 °F 93% 30.12 in 2.0 mi WNW 4.6 mph - 0.00 in   Overcast
3:42 PM 46.4 °F 44.3 °F 44.6 °F 93% 30.13 in 6.0 mi WNW 4.6 mph - 0.00 in Rain Light Rain
3:56 PM 46.9 °F - 46.0 °F 97% 30.15 in 5.0 mi Calm Calm - 0.01 in Rain Light Rain
4:46 PM 46.4 °F - 44.6 °F 93% 30.12 in 5.0 mi Calm Calm - 0.00 in   Mostly Cloudy
4:56 PM 46.0 °F 44.8 °F 45.0 °F 96% 30.14 in 5.0 mi South 3.5 mph - 0.00 in   Overcast
5:14 PM 46.4 °F 45.2 °F 44.6 °F 93% 30.11 in 6.0 mi South 3.5 mph - 0.02 in Rain Light Rain
5:29 PM 46.4 °F 45.2 °F 44.6 °F 93% 30.11 in 5.0 mi SSE 3.5 mph - 0.02 in Rain Light Rain
5:56 PM 46.0 °F 44.8 °F 45.0 °F 96% 30.14 in 4.0 mi SSW 3.5 mph - 0.02 in   Overcast
6:56 PM 46.0 °F 42.5 °F 43.0 °F 89% 30.13 in 10.0 mi WSW 6.9 mph - N/A   Overcast
7:56 PM 45.0 °F - 42.1 °F 90% 30.12 in 10.0 mi Calm Calm - 0.00 in   Overcast
8:56 PM 45.0 °F 43.5 °F 41.0 °F 86% 30.12 in 10.0 mi SW 3.5 mph - N/A   Overcast
9:56 PM 43.0 °F 39.5 °F 39.0 °F 86% 30.13 in 10.0 mi West 5.8 mph - N/A   Mostly Cloudy
10:56 PM 42.1 °F 38.4 °F 37.0 °F 82% 30.12 in 10.0 mi SW 5.8 mph - N/A   Clear
11:56 PM 39.9 °F 34.5 °F 36.0 °F 86% 30.13 in 10.0 mi West 8.1 mph - N/A   Clear